sat.trackr.live / text

‹ back to catalog

STARLINK-4431

NORAD 53486 · 2022-099X

PAYLOAD ACTIVE UNKNOWN

§ Identity

Operator
Country
US
Launch date
2022-08-12
Launch site
AFWTR
Launch vehicle
Mass (kg)
RCS (m²)

Purposes: comms

External: N2YO · Heavens-Above · Gunter

§ Orbital elements

Epoch: 2026-09-18T08:22:46.729344Z

Period
93.69 min
Inclination
97.5001°
Eccentricity
0.0000531
Mean motion
15.36966341 rev/d
Perigee alt
454.7 km
Apogee alt
455.4 km
Semi-major
6,833.2 km
B*
2.4060e-5
RAAN
29.1440°
Arg perigee
95.7266°
Mean anomaly
264.4039°
Rev number
22,557

§ Raw data

STARLINK-44311 53486U 22099X   26261.34915196  .00000787  00000+0  24060-4 0  99902 53486  97.5001  29.1440 0000531  95.7266 264.4039 15.36966341225577

JSON: /api/v1/satellites/53486 · /tle

For live sub-satellite position, see the globe view (requires WebGL).

§ Visibility from observer

Set your observer location to see the next 7 days of passes ≥ 10°. The values pass through the URL so the page stays shareable.

No JS? Fill the form by hand. The geolocation button needs JavaScript.